Date,TemperatureHighF,TemperatureAvgF,TemperatureLowF,DewpointHighF,DewpointAvgF,DewpointLowF,HumidityHigh,HumidityAvg,HumidityLow,PressureMaxIn,PressureMinIn,WindSpeedMaxMPH,WindSpeedAvgMPH,GustSpeedMaxMPH,PrecipitationSumIn
2013-1-1,50,46,42,49,43,34,99,90,62,28.98,28.82,8,1,8,0.39
2013-1-2,59,47,43,58,46,42,100,99,93,29.03,28.77,4,1,5,0.09
2013-1-3,44,41,38,43,40,38,99,97,92,29.07,28.97,6,2,6,0.00
2013-1-4,56,39,25,32,23,19,86,56,40,29.20,29.09,12,2,12,0.00
2013-1-5,50,38,20,36,29,20,99,72,41,29.25,29.13,7,1,7,0.00
2013-1-6,59,46,32,47,41,30,99,83,64,29.08,28.90,10,2,10,0.02
2013-1-7,58,36,24,42,30,24,99,83,40,29.29,29.07,9,2,9,0.00
2013-1-8,54,39,24,46,36,24,99,91,65,29.32,29.22,6,1,6,0.00
2013-1-9,65,50,42,59,49,41,99,97,80,29.31,29.24,2,0,4,0.00
2013-1-10,70,57,44,58,52,44,99,84,64,29.37,29.23,7,2,7,0.00
2013-1-11,55,47,46,51,47,45,99,98,74,29.24,29.03,8,2,8,0.25
2013-1-12,73,57,48,73,57,47,99,99,99,29.04,28.96,5,0,5,0.01
2013-1-13,74,59,51,71,59,50,99,98,84,29.02,28.92,13,1,13,0.00
2013-1-14,64,61,58,63,61,58,99,99,99,28.98,28.93,6,1,6,0.07
2013-1-15,62,48,41,62,48,41,99,99,99,29.01,28.94,8,3,8,0.21
2013-1-16,53,45,41,53,45,33,99,99,99,29.03,28.83,6,0,6,0.20
2013-1-17,50,45,32,50,44,32,99,99,99,29.06,28.67,26,5,26,1.59
2013-1-18,57,35,26,57,31,26,99,87,39,29.36,28.95,10,1,10,0.01
2013-1-19,53,34,22,46,29,22,99,87,49,29.35,29.18,8,0,8,0.00
2013-1-20,71,48,27,47,36,27,99,69,35,29.25,28.88,5,0,7,0.00
2013-1-21,64,43,25,47,30,18,99,67,27,31.75,24.95,13,2,13,0.00
2013-1-22,46,34,24,19,10,0,68,38,18,29.11,28.88,15,3,15,0.00
2013-1-23,52,32,17,31,18,7,81,59,30,29.20,28.91,10,2,10,0.00
2013-1-24,52,36,20,41,19,5,99,56,24,29.35,28.84,15,4,15,0.00
2013-1-25,27,23,16,26,18,8,99,81,57,29.36,28.97,7,1,7,0.00
2013-1-26,55,33,25,42,31,25,99,93,57,29.17,28.95,5,0,5,0.01
2013-1-27,49,41,33,34,32,29,99,70,52,29.42,29.32,9,3,9,0.00
2013-1-28,53,42,38,48,40,34,99,90,79,29.35,29.11,8,0,8,0.02
2013-1-29,70,53,37,65,52,37,99,97,83,29.12,28.90,10,1,11,0.00
2013-1-30,71,64,49,69,63,49,99,98,87,28.90,28.34,18,6,18,1.19
2013-1-31,53,43,29,49,31,23,99,65,38,28.89,28.42,20,6,20,0.02
2013-2-1,44,35,21,32,18,7,76,52,25,29.22,28.77,17,5,17,0.00
2013-2-2,44,30,19,39,20,12,99,70,34,29.23,28.89,12,1,12,0.00
2013-2-3,56,39,26,43,30,23,99,76,34,28.90,28.73,20,4,20,0.00
2013-2-4,53,32,22,34,26,22,99,83,41,29.01,28.88,5,0,5,0.00
2013-2-5,40,37,34,39,37,34,99,99,98,28.86,28.83,2,0,0,0.00
2013-2-6,69,45,29,52,34,28,99,71,28,29.09,28.85,9,1,9,0.00
2013-2-7,43,40,38,42,35,28,99,84,58,29.15,28.88,13,5,13,0.77
2013-2-8,62,46,34,55,41,31,99,84,50,28.99,28.75,18,4,18,0.02
2013-2-9,66,42,26,40,29,25,99,68,23,29.20,28.97,8,1,8,0.00
2013-2-10,61,49,42,44,38,29,99,70,30,29.23,29.03,8,1,8,0.18
2013-2-11,57,50,42,57,49,42,99,99,99,29.03,28.83,10,1,10,0.14
2013-2-12,64,48,35,54,42,35,99,83,41,28.98,28.76,6,0,6,0.02
2013-2-13,48,44,34,48,43,33,99,98,85,28.82,28.53,11,1,11,0.06
2013-2-14,57,39,25,42,34,25,99,85,52,28.93,28.74,9,1,9,0.00
2013-2-15,68,45,26,49,36,26,99,75,38,28.96,28.79,11,2,11,0.00
2013-2-16,43,35,24,38,32,21,99,87,68,28.87,28.69,11,2,11,0.00
2013-2-17,28,24,19,22,18,15,94,78,63,29.12,28.87,4,0,4,0.08
2013-2-18,59,36,18,33,25,15,94,67,35,29.24,29.06,9,2,9,0.00
2013-2-19,55,40,27,52,36,24,99,86,43,29.06,28.74,10,2,10,0.21
2013-2-20,58,38,19,35,22,11,99,60,21,28.98,28.89,8,1,8,0.00
2013-2-21,65,41,21,41,25,13,99,57,23,29.11,28.95,7,1,7,0.06
2013-2-22,40,38,37,40,38,36,99,99,99,29.17,29.04,7,3,7,0.17
2013-2-23,61,44,39,52,43,38,99,96,55,28.84,28.71,1,0,3,0.25
2013-2-24,70,50,37,45,36,31,81,60,38,28.90,28.79,5,1,5,0.00
2013-2-25,45,39,32,33,31,28,99,72,60,29.05,28.88,12,4,12,0.00
2013-2-26,55,35,32,51,34,27,99,97,67,29.13,28.47,18,4,18,1.22
2013-2-27,63,47,32,50,41,32,99,82,53,28.67,28.51,10,2,10,0.00
2013-2-28,53,36,28,36,30,27,99,83,46,28.76,28.59,9,1,9,0.00
2013-3-1,49,38,23,37,30,23,99,77,57,28.80,28.73,8,2,8,0.00
2013-3-2,54,37,26,43,34,23,99,89,63,28.81,28.69,10,1,10,0.06
2013-3-3,51,33,18,35,22,17,99,68,35,28.87,28.75,13,3,13,0.06
2013-3-4,63,38,18,31,23,16,95,62,21,29.00,28.86,12,2,12,0.00
2013-3-5,50,42,33,50,40,28,99,92,72,28.93,28.50,12,1,12,0.53
2013-3-6,50,39,26,41,30,25,99,72,50,28.99,28.50,23,6,23,0.10
2013-3-7,62,39,22,38,30,22,99,72,38,29.15,28.97,10,2,10,0.00
2013-3-8,64,40,22,39,27,21,99,66,27,29.19,29.07,15,3,15,0.00
2013-3-9,70,45,24,42,34,24,99,70,34,29.22,29.10,8,2,8,0.00
2013-3-10,72,50,32,48,40,32,99,71,33,29.16,29.03,10,2,10,0.00
2013-3-11,72,54,39,58,49,39,99,84,57,29.06,28.73,16,3,16,0.09
2013-3-12,73,59,39,62,49,-3,99,75,5,29.48,28.61,13,4,13,0.28
2013-3-13,59,43,28,43,29,19,99,63,30,29.03,28.87,17,5,17,0.00
2013-3-14,57,39,25,26,21,17,80,52,24,29.16,29.01,13,3,13,0.00
2013-3-15,72,46,24,46,34,22,99,68,39,29.06,28.78,13,2,13,0.00
2013-3-16,83,63,43,59,51,42,99,68,43,28.78,28.59,16,4,16,0.00
2013-3-17,80,60,45,61,51,44,99,75,49,28.96,28.73,15,4,15,0.00
2013-3-18,41,40,39,41,40,39,99,99,99,29.00,28.73,8,2,8,0.47
2013-3-19,71,57,40,54,31,20,97,39,27,28.94,28.80,14,4,14,0.01
2013-3-20,63,49,41,35,21,12,66,33,20,28.99,28.67,15,4,15,0.00
2013-3-21,51,39,26,30,16,6,65,40,26,28.84,28.68,15,5,15,0.00
2013-3-22,58,37,19,33,21,14,85,57,27,28.95,28.83,11,2,11,0.00
2013-3-23,61,44,35,49,40,31,99,87,61,28.92,28.76,8,1,8,0.04
2013-3-24,43,41,37,42,41,37,99,99,99,28.80,28.43,15,4,15,0.96
2013-3-25,49,42,34,40,28,23,99,59,41,28.77,28.46,26,8,26,0.06
2013-3-26,48,38,23,38,28,23,99,70,50,29.06,28.76,20,3,20,0.00
2013-3-27,56,39,22,37,26,22,99,64,36,29.12,29.04,15,3,15,0.00
2013-3-28,63,41,22,38,27,22,99,63,26,29.18,29.05,14,2,14,0.00
2013-3-29,68,48,26,42,33,25,98,63,29,29.18,29.05,13,2,13,0.00
2013-3-30,69,53,44,52,47,42,99,83,49,29.10,28.92,9,2,9,0.09
2013-3-31,75,57,39,66,55,26,99,93,59,28.92,28.68,14,3,14,0.31
2013-4-1,74,60,46,58,49,41,99,70,38,28.85,28.71,17,4,17,0.32
2013-4-2,68,52,34,44,36,26,99,59,23,29.03,28.84,16,3,16,0.00
2013-4-3,64,52,41,38,29,20,75,43,29,29.16,28.99,15,3,15,0.00
2013-4-4,47,40,35,42,33,24,99,79,41,29.14,28.85,15,5,15,0.83
2013-4-5,71,50,36,54,43,36,99,80,40,28.93,28.77,12,2,12,0.00
2013-4-6,75,53,34,53,41,33,99,70,32,29.10,28.93,10,2,10,0.00
2013-4-7,76,57,38,58,49,37,99,77,47,29.12,28.99,12,2,12,0.00
2013-4-8,82,66,49,68,59,48,99,81,52,29.07,28.92,3,0,8,0.00
2013-4-9,86,72,60,69,63,60,99,75,52,29.08,28.96,4,1,9,0.00
2013-4-10,89,71,51,72,63,51,99,80,51,28.99,28.82,13,2,13,0.00
2013-4-11,84,69,56,74,66,55,99,90,68,28.86,28.61,13,2,13,0.15
2013-4-12,85,70,57,75,62,43,99,78,41,28.71,28.52,18,4,18,0.99
2013-4-13,81,60,39,59,46,38,99,66,31,28.91,28.71,10,2,10,0.00
2013-4-14,80,61,41,59,50,41,99,73,40,28.98,28.86,9,2,9,0.99
2013-4-15,65,59,55,65,59,55,99,99,87,29.08,28.87,8,2,8,0.11
2013-4-16,84,66,55,72,62,55,99,89,60,29.17,29.05,8,1,8,0.01
2013-4-17,85,68,54,74,64,54,99,89,63,29.12,28.98,10,1,10,0.00
2013-4-18,83,69,58,74,65,57,99,90,62,29.04,28.85,10,2,10,0.11
2013-4-19,76,67,55,75,66,55,99,99,94,28.86,28.62,15,5,15,0.41
2013-4-20,62,61,58,41,40,37,49,45,42,29.04,29.04,6,2,6,0.00
2013-4-21,65,56,47,49,46,43,99,72,52,29.31,29.21,9,2,11,0.00
2013-4-22,68,52,39,48,41,37,99,71,40,29.31,29.09,17,4,17,0.00
2013-4-23,77,57,38,59,49,38,99,78,51,29.15,28.97,9,2,9,0.00
2013-4-24,76,61,46,66,58,46,99,90,69,29.01,28.87,15,3,15,0.00
2013-4-25,76,61,47,60,49,38,99,69,35,29.17,28.92,10,2,10,0.00
2013-4-26,77,59,39,53,44,36,99,63,33,29.31,29.16,10,2,10,0.00
2013-4-27,67,56,53,62,55,51,99,96,82,29.24,29.12,6,0,6,0.37
2013-4-28,55,54,53,55,54,52,99,99,98,29.13,28.91,26,1,6,2.44
2013-4-29,80,62,54,72,60,54,99,95,74,28.94,28.81,9,1,9,0.11
2013-4-30,77,62,53,71,61,53,99,96,77,29.06,28.86,12,2,12,0.00
2013-5-1,69,59,51,66,58,46,99,97,86,29.17,28.76,13,3,13,0.01
2013-5-2,64,58,55,63,58,55,99,99,99,29.18,29.10,8,3,8,0.14
2013-5-3,68,60,55,62,58,54,99,92,79,29.12,28.98,13,4,13,0.01
2013-5-4,64,55,48,58,53,34,99,92,57,29.08,28.86,13,6,13,0.00
2013-5-5,58,52,49,58,52,48,99,99,99,28.92,28.69,15,5,15,1.75
2013-5-6,77,61,51,70,58,51,99,91,57,28.78,28.68,13,3,13,0.48
2013-5-7,80,58,42,64,53,42,99,86,50,28.83,28.73,10,1,10,0.05
2013-5-8,79,63,48,71,58,47,99,87,63,28.90,28.79,10,2,10,0.09
2013-5-9,87,67,48,73,60,48,99,83,51,28.97,28.88,8,1,8,0.00
2013-5-10,86,70,52,76,64,52,99,84,61,28.96,28.82,15,2,15,0.00
2013-5-11,82,70,62,73,66,61,99,89,70,28.79,28.67,2,0,7,0.18
2013-5-12,78,64,37,68,54,36,99,74,30,29.48,28.73,10,2,10,0.00
2013-5-13,74,62,37,53,43,35,99,53,32,29.06,28.92,12,3,12,0.00
2013-5-14,78,59,36,56,47,34,99,70,39,29.13,28.95,15,2,15,0.00
2013-5-15,92,78,63,74,70,63,99,77,54,28.96,28.81,9,1,9,0.00
2013-5-16,89,70,54,76,65,53,99,84,55,28.91,28.82,8,1,8,0.00
2013-5-17,90,73,56,79,67,34,99,84,53,29.00,28.88,8,1,8,0.00
2013-5-18,71,64,60,71,64,59,99,99,99,29.03,28.94,4,0,4,0.26
2013-5-19,80,77,74,78,76,74,99,98,94,28.95,28.89,7,1,7,0.01
2013-5-20,85,72,64,80,71,64,99,96,80,29.01,28.88,0,0,2,0.33
2013-5-21,93,75,61,86,72,32,99,91,67,28.95,28.81,10,1,10,0.00
2013-5-22,87,74,64,80,71,64,99,92,76,28.90,28.76,5,1,9,0.26
2013-5-23,86,69,60,80,68,60,99,97,78,28.88,28.70,8,1,8,0.20
2013-5-24,77,67,53,73,57,46,99,75,39,29.00,28.77,17,3,17,0.01
2013-5-25,81,65,52,66,55,51,100,74,41,29.18,29.03,2,0,7,0.00
2013-5-26,79,64,50,77,58,49,100,83,56,29.17,29.04,1,0,4,0.00
2013-5-27,85,75,60,71,66,60,99,77,54,29.13,29.00,8,1,8,0.00
2013-5-28,88,73,59,76,69,59,99,88,63,29.12,29.02,8,1,8,0.00
2013-5-29,89,73,57,78,68,57,99,87,59,29.12,29.02,0,0,0,0.00
2013-5-30,89,72,57,80,69,57,100,89,63,29.16,29.04,1,0,4,0.00
2013-5-31,91,78,63,83,74,62,100,87,61,29.12,28.98,8,1,8,0.00
2013-6-1,88,76,-18,81,72,-21,99,88,68,29.02,28.89,10,2,10,0.00
2013-6-2,83,75,67,82,75,67,99,98,90,28.88,28.79,8,2,8,0.27
2013-6-3,87,71,65,83,70,64,99,97,81,28.85,28.73,7,0,7,0.17
2013-6-4,85,73,65,79,70,65,99,94,74,28.96,28.84,8,2,8,0.14
2013-6-5,80,71,64,79,71,64,99,99,96,28.99,28.85,10,2,10,0.00
2013-6-6,79,72,67,79,72,66,99,99,99,28.77,28.57,1,0,4,0.12
2013-6-7,88,74,66,84,74,65,99,97,81,28.73,28.54,10,2,10,1.28
2013-6-8,90,75,66,81,73,65,99,92,68,28.98,28.72,8,1,8,1.28
2013-6-9,94,74,66,85,72,66,99,95,70,29.00,28.92,8,1,8,0.15
2013-6-10,80,71,68,79,71,68,99,99,99,28.97,28.87,12,3,12,0.14
2013-6-11,94,76,61,88,72,61,99,87,58,28.90,28.81,1,0,3,0.02
2013-6-12,98,82,68,87,79,68,99,90,68,28.89,28.69,2,0,5,0.00
2013-6-13,96,76,57,84,72,57,99,87,65,28.81,28.56,3,0,7,0.14
2013-6-14,88,71,55,74,64,54,99,80,51,29.03,28.80,3,0,8,0.00
2013-6-15,91,82,63,76,71,62,99,71,56,29.02,28.92,9,3,9,0.00
2013-6-16,92,77,61,80,72,61,99,86,62,29.03,28.90,9,2,9,0.00
2013-6-17,90,76,70,83,74,43,100,94,35,28.92,28.82,18,2,18,0.17
2013-6-18,70,70,70,70,70,69,99,99,99,28.86,28.82,4,1,4,1.37
2013-6-19,86,80,64,82,77,64,100,92,72,29.11,28.89,3,0,5,0.00
2013-6-20,86,73,61,81,70,60,100,92,75,29.16,29.03,2,0,5,0.00
2013-6-21,90,78,62,85,72,61,100,83,63,29.15,29.05,8,2,8,0.00
2013-6-22,87,69,60,80,67,60,99,93,70,29.12,29.08,7,1,7,0.00
2013-6-23,92,77,66,92,75,66,100,94,71,29.10,28.99,1,0,7,0.01
2013-6-24,92,78,71,92,77,71,100,95,76,29.09,28.98,4,1,6,0.07
2013-6-25,96,78,69,87,76,68,99,92,63,29.03,28.91,7,2,7,0.06
2013-7-6,82,75,72,82,75,72,99,99,99,29.07,28.98,8,1,8,0.31
2013-7-7,76,73,72,76,72,72,99,99,99,29.07,29.02,6,1,6,0.02
2013-7-8,91,78,69,87,77,69,100,96,81,29.07,28.98,1,0,3,0.14
2013-7-9,96,80,69,88,78,69,100,94,74,29.05,28.93,1,0,4,0.06
2013-7-10,89,76,70,87,76,70,99,98,90,28.97,28.83,2,0,4,0.02
2013-7-11,81,74,69,80,74,69,100,99,99,28.86,28.76,0,0,2,0.05
2013-7-12,84,74,68,83,74,68,100,98,93,29.00,28.79,3,0,8,0.01
2013-7-13,82,76,71,81,76,71,99,99,97,29.00,28.94,10,3,10,0.07
2013-7-14,88,76,71,86,76,71,99,99,90,29.14,28.97,13,3,13,0.44
2013-7-15,92,82,70,85,79,70,99,91,77,29.21,29.12,8,2,8,0.01
2013-7-16,98,80,66,89,77,65,99,91,66,29.20,29.09,4,0,4,0.44
2013-7-17,96,75,69,90,74,68,99,97,75,29.14,29.02,8,0,8,0.07
2013-7-18,96,82,67,91,80,66,99,93,78,29.07,28.99,4,0,4,0.00
2013-7-19,91,91,91,87,87,87,88,88,88,28.99,28.99,0,0,0,0.00
2013-7-20,91,91,91,87,87,87,88,88,88,28.99,28.99,0,0,0,0.00
2013-7-21,91,81,72,91,77,-31,99,95,1,28.99,27.97,8,1,2,0.00
2013-7-22,90,83,82,87,82,81,99,97,87,28.86,28.80,6,0,6,0.01
2013-7-23,88,88,88,84,84,84,86,86,86,28.80,28.80,0,0,0,0.00
2013-7-24,88,88,88,84,84,84,86,86,86,28.80,28.80,0,0,0,0.00
2013-7-25,88,86,75,84,82,75,99,88,77,28.86,28.80,4,0,4,0.00
2013-7-26,88,86,82,83,82,80,97,88,83,28.99,28.97,6,0,6,0.00
2013-7-27,86,82,69,86,80,69,99,92,88,28.97,28.81,5,0,5,0.07
2013-7-28,84,79,69,83,78,69,99,99,98,28.90,28.82,1,0,0,0.00
2013-7-29,92,75,63,80,71,63,99,90,65,29.06,28.89,7,1,7,0.00
2013-7-30,90,75,64,81,72,63,99,92,72,29.12,29.02,8,1,8,0.00
2013-7-31,83,73,70,83,73,69,99,99,99,29.06,28.88,6,0,6,0.15
2013-8-1,92,76,71,88,74,-100,99,96,81,29.85,28.76,7,-8,7,0.60
2013-8-2,90,68,70,82,50,-100,99,78,73,29.97,28.76,7,-154,7,0.00
2013-8-3,92,69,68,88,58,-100,99,86,72,29.96,29.87,5,-96,5,0.00
2013-8-4,92,69,66,86,55,-100,99,81,67,29.96,29.86,100,-111,100,0.38
2013-8-5,88,36,69,83,-20,-100,99,42,81,30.01,29.90,24,-541,24,0.00
2013-8-6,76,62,68,76,48,-100,99,85,99,29.99,29.91,6,-139,7,0.00
2013-8-7,85,69,70,84,60,-100,99,90,89,30.02,29.93,8,-88,8,0.00
2013-8-8,90,61,70,87,38,-100,99,76,88,29.99,29.91,8,-222,8,0.00
2013-8-9,94,19,72,90,-58,-100,99,22,89,30.01,29.93,4,-766,4,1.51
2013-8-10,95,27,-10,90,-38,-100,99,35,81,30.06,29.97,8,-640,8,0.74
2013-8-11,98,79,69,89,77,69,99,95,70,30.06,29.96,4,0,4,0.00
2013-8-12,95,80,68,90,77,68,99,94,71,30.00,29.81,6,0,7,0.00
2013-8-13,91,77,69,86,76,68,99,97,81,29.90,29.73,8,1,9,0.00
2013-8-14,83,72,62,77,70,-100,99,95,72,30.01,29.80,8,-3,8,0.00
2013-8-15,77,66,58,72,64,57,99,93,76,30.09,29.99,8,1,8,0.00
2013-8-16,75,64,59,74,63,58,99,98,92,30.09,30.01,8,1,8,0.01
2013-8-17,73,58,59,68,48,-100,99,90,35,30.12,30.05,5,-92,5,0.04
2013-8-18,82,47,66,80,9,-100,99,62,93,30.15,30.06,3,-374,3,0.01
2013-8-19,81,62,-5,80,51,-100,99,88,95,30.12,30.01,4,-109,4,0.02
2013-8-20,83,72,63,82,71,63,99,99,97,30.12,30.03,4,0,4,0.00
2013-8-21,86,73,68,86,72,-100,99,99,95,30.16,30.03,6,-4,6,0.17
2013-8-22,93,78,67,88,76,67,99,95,75,30.09,29.94,6,0,6,0.02
2013-8-23,93,74,64,86,71,-100,99,94,68,30.01,29.91,5,-8,5,0.01
2013-8-24,85,69,59,78,63,-100,99,87,66,30.22,30.01,9,-23,9,0.00
2013-8-25,84,49,57,74,23,-100,99,70,62,30.31,30.20,8,-245,8,0.00
2013-8-26,89,69,54,77,65,-100,99,90,63,30.25,30.05,5,-4,5,0.00
2013-8-27,93,74,59,84,72,58,99,92,67,30.08,29.92,5,0,5,0.00
2013-8-28,94,77,64,88,75,64,99,94,71,29.96,29.85,4,0,4,0.00
2013-8-29,96,80,69,89,77,68,99,92,67,29.92,29.82,12,0,12,0.01
2013-8-30,89,76,69,84,75,69,99,96,78,29.99,29.87,5,0,5,0.00
2013-8-31,93,74,66,87,73,66,99,97,73,29.90,29.80,9,1,10,0.44
2013-9-1,96,72,65,88,69,-100,99,95,85,29.85,29.72,11,-23,12,0.46
2013-9-2,91,69,66,86,58,-100,99,87,79,29.84,29.74,5,-100,5,4.26
2013-9-3,87,14,69,82,-68,-100,99,17,33,29.91,29.75,2,-811,2,0.34
2013-9-4,86,15,66,77,-63,-100,99,21,75,30.03,29.90,5,-781,5,2.88
2013-9-5,86,40,63,80,-2,-100,99,57,67,30.06,29.98,1,-410,1,4.17
2013-9-6,87,70,60,76,65,-100,99,88,65,30.13,30.01,8,-20,8,0.17
2013-9-7,86,66,59,79,58,-100,99,89,72,30.07,29.91,6,-56,6,0.00
2013-9-8,92,62,60,81,46,-100,99,78,60,29.93,29.86,4,-137,4,0.00
2013-9-9,91,66,64,84,50,-100,99,79,66,30.07,29.93,7,-128,7,2.03
2013-9-10,95,54,63,85,19,-100,99,60,63,30.17,30.06,4,-324,4,0.00
2013-9-11,92,69,34,83,60,-100,99,86,70,30.15,30.01,4,-68,4,0.01
2013-9-12,93,66,65,86,55,-100,99,87,76,30.01,29.78,3,-96,3,0.01
2013-9-13,90,73,62,78,67,59,99,82,48,29.85,29.72,10,1,10,0.01
2013-9-14,82,54,53,67,35,-100,99,74,59,30.04,29.84,8,-154,9,0.00
2013-9-15,57,15,53,56,-57,-100,99,26,99,30.14,30.03,24,-718,24,0.00
2013-9-16,91,47,59,82,4,-100,99,50,57,30.09,29.98,5,-394,5,0.00
2013-9-17,77,41,62,67,-1,-100,99,52,67,30.23,30.09,9,-398,9,0.00
2013-9-18,80,38,58,69,-10,-100,99,47,67,30.23,30.09,7,-449,7,0.00
2013-9-19,79,3,61,73,-93,-100,99,4,81,30.11,30.00,2,-959,2,0.00
2013-9-20,61,1,61,61,-98,-100,99,1,99,30.02,29.84,1,-987,1,0.00
2013-9-21,67,12,63,67,-69,-100,99,19,99,29.86,29.63,11,-809,11,0.53
2013-9-22,81,42,55,71,4,-100,99,57,62,29.84,29.65,8,-362,8,0.53
2013-9-23,73,15,56,66,-60,-100,99,23,75,29.99,29.83,4,-749,4,0.00
2013-9-24,82,25,58,72,-35,-100,99,40,71,30.01,29.86,3,-592,3,0.00
2013-9-25,71,43,59,70,12,-100,99,68,97,29.87,29.80,78,-301,78,0.00
2013-9-26,80,47,55,72,15,-100,99,63,60,29.96,29.80,8,-293,8,0.00
2013-9-27,79,31,51,68,-28,-100,99,35,65,30.11,29.96,8,-556,8,0.00
2013-9-28,76,49,51,68,25,-100,99,69,67,30.18,30.08,8,-213,9,0.00
2013-9-29,76,30,-8,66,-23,-100,99,42,70,30.11,29.96,25,-517,25,0.00
2013-9-30,64,40,51,64,13,-100,99,72,99,30.00,29.93,2,-276,2,0.00
2013-10-1,68,6,61,67,-85,-100,99,9,99,30.07,29.96,1,-905,1,0.00
2013-10-2,85,30,52,79,-34,-100,99,32,64,30.09,29.99,6,-607,6,0.00
2013-10-3,86,22,57,77,-50,-100,99,26,64,30.06,29.98,193,-682,193,0.00
2013-10-4,89,66,56,78,56,-100,99,84,62,30.08,29.99,5,-66,5,0.00
2013-10-5,92,63,57,79,52,-100,99,83,62,30.07,29.96,4,-80,4,0.00
2013-10-6,88,68,57,79,65,57,99,93,65,29.98,29.81,6,0,6,0.00
2013-10-7,78,59,58,78,45,-100,99,85,87,29.93,29.73,11,-132,11,1.88
2013-10-8,72,36,6,67,-4,-100,99,55,68,30.13,29.92,8,-381,8,0.00
2013-10-9,76,33,49,58,-11,-100,99,52,54,30.15,30.03,8,-407,8,0.00
2013-10-11,68,49,58,68,26,-100,99,77,99,29.90,29.85,0,-226,0,0.00
2013-10-12,65,4,64,64,-91,-100,99,6,99,30.01,29.89,2,-943,2,0.00
2013-10-13,76,66,61,72,66,61,99,98,87,30.14,30.01,8,1,8,0.00
2013-10-14,72,57,58,71,46,-100,99,87,92,30.17,30.06,8,-111,8,0.00
2013-10-15,76,62,54,66,58,-100,99,91,63,30.13,29.97,7,-11,8,0.00
2013-10-16,76,62,50,70,60,50,99,95,78,30.01,29.88,6,1,6,0.00
2013-10-17,72,63,57,72,63,57,99,99,98,29.90,29.77,8,1,8,0.05
2013-10-18,73,60,50,67,58,50,99,95,77,29.96,29.81,7,1,7,0.01
2013-10-19,65,57,47,64,57,47,99,99,99,29.89,29.76,6,0,6,0.02
2013-10-20,70,51,39,58,48,39,99,89,57,30.01,29.84,6,1,7,0.01
2013-10-21,69,53,38,61,50,38,99,92,71,30.07,29.91,7,1,7,0.00
2013-10-22,68,59,51,66,58,51,99,97,89,29.93,29.71,6,0,6,0.00
2013-10-23,68,54,38,64,46,35,99,78,43,29.95,29.64,14,2,14,0.00
2013-10-24,49,34,28,48,34,28,99,99,92,30.08,29.94,2,0,2,0.00
2013-10-25,57,43,31,46,36,-100,99,79,46,30.29,30.06,10,-3,10,0.00
2013-10-26,29,20,25,29,-7,-100,99,73,99,30.28,30.21,0,-260,0,0.00
2013-11-3,61,61,60,48,46,46,62,59,58,30.14,30.14,6,4,6,0.19
2013-11-9,-200,0,200,-100,-100,-100,0,0,100,30.17,30.15,0,-999,0,0.00
2013-11-12,50,34,26,37,16,-100,81,58,55,30.36,30.07,16,-64,16,0.00
2013-11-13,49,17,16,31,-18,-100,99,55,32,30.45,30.34,4,-310,4,0.00
2013-11-14,52,18,18,37,-19,-100,99,57,39,30.37,30.22,49,-331,49,0.00
2013-11-15,47,12,25,47,-50,-100,99,38,97,30.24,30.09,3,-615,3,0.14
2013-11-16,61,11,47,61,-68,-100,99,20,99,30.19,30.10,99,-771,99,0.19
2013-11-24,-200,0,200,-100,-100,-100,0,0,100,0.00,40.00,0,-999,0,0.00
2013-11-25,37,34,36,22,12,-100,55,48,49,30.30,30.23,4,-67,4,0.00
2013-11-26,43,35,31,43,29,-100,99,91,53,30.23,29.52,9,-39,9,1.63
2013-11-27,48,38,24,45,34,21,99,89,61,30.10,29.44,14,3,14,0.69
2013-11-28,53,29,16,31,24,16,99,82,39,30.36,30.10,6,1,6,0.00
2013-11-29,59,35,21,38,28,21,99,81,34,30.49,30.34,9,1,9,0.00
2013-11-30,53,34,25,32,27,-100,99,81,43,30.53,30.27,10,-6,10,2.53
2013-12-1,67,38,23,46,33,23,99,84,47,30.27,29.92,8,1,8,0.00
2013-12-2,65,43,28,54,39,28,99,88,49,29.93,29.73,7,1,7,0.00
2013-12-3,60,51,42,59,50,41,99,98,92,29.87,29.77,4,0,4,0.12
2013-12-4,60,48,51,60,34,-100,99,85,99,29.98,29.85,194,-110,194,0.28
2013-12-5,68,63,59,68,62,59,99,99,99,30.02,29.92,8,2,11,0.05
2013-12-6,79,69,65,74,68,65,99,96,78,29.97,29.87,13,4,13,0.05
2013-12-7,67,54,44,66,52,-100,99,94,85,30.31,29.90,12,-8,12,0.14
2013-12-8,46,37,33,43,37,33,99,99,94,30.31,30.15,8,3,8,0.20
2013-12-9,43,38,33,43,38,33,99,99,99,30.16,29.94,4,0,4,0.20
2013-12-10,56,42,25,52,38,24,99,87,53,30.21,29.80,14,2,14,0.21
2013-12-11,59,33,19,42,26,-100,99,82,41,30.34,30.18,8,-15,8,0.00
2013-12-12,56,35,22,32,23,16,99,67,27,30.30,30.18,8,1,8,0.00
2013-12-13,56,32,18,36,18,-100,99,72,39,30.27,30.14,24,-63,24,0.00
2013-12-14,41,30,22,41,10,-100,99,78,89,30.16,29.70,10,-195,10,0.69
2013-12-15,56,41,26,51,37,25,99,86,52,30.01,29.64,11,2,12,0.00
2013-12-16,66,37,23,45,24,-100,99,76,43,30.07,29.98,7,-80,7,0.01
2013-12-17,69,45,26,49,36,26,99,75,43,30.03,29.82,11,2,11,0.00
2013-12-18,59,39,26,36,24,19,90,60,27,30.18,29.97,49,2,49,0.00
2013-12-19,69,41,22,38,29,-100,99,68,28,30.22,30.11,9,-3,9,0.00
2013-12-20,64,48,34,54,45,32,99,91,71,30.15,30.05,8,1,8,0.00
2013-12-21,67,44,45,67,23,-100,99,78,99,30.05,29.91,6,-208,6,0.00
2013-12-22,72,53,61,72,34,-100,99,80,99,29.98,29.88,9,-187,9,0.52
2013-12-23,64,56,44,63,54,-100,99,97,94,30.09,29.89,7,-10,8,1.16
2013-12-24,48,35,26,44,22,-100,99,72,41,30.33,30.06,13,-70,14,0.00
2013-12-25,51,28,17,27,19,15,99,71,30,30.43,30.26,9,1,9,0.00
2013-12-26,51,27,10,34,12,-100,99,77,47,30.27,30.14,14,-112,14,0.05
2013-12-27,58,30,22,40,15,-100,99,74,35,30.36,30.24,5,-92,5,0.00
2013-12-28,55,32,21,43,16,-100,99,76,49,30.30,30.03,4,-108,4,0.04
2013-12-29,67,41,24,61,32,-100,99,89,75,30.03,29.69,9,-83,11,0.84
2013-12-30,55,38,30,52,29,-100,99,89,71,30.02,29.85,4,-80,4,0.01
2013-12-31,53,37,28,44,29,-100,99,82,44,30.26,29.99,8,-35,8,0.00
2014-1-1,52,19,33,36,-38,-100,99,36,51,30.28,30.03,6,-537,6,0.00
2014-1-2,45,39,29,45,38,22,99,98,74,30.04,29.56,19,1,19,0.27